User: anonymous   Login
Location: Unspecified
(0.0000°N, 0.0000°E)
Time: 22:23:53
(UTC+00:00)
Language:

STARLINK-32680 - Orbit

View from above orbital plane
View from above orbital plane
View from above satellite
View from above satellite

Ground track
Ground track

The orbit is defined by the following mean orbital elements,

1 62423U          26145.53149793 +.00000000 +00000-0 -32576-3 0 00006
2 62423  42.9990 240.2825 0000652 273.0727  87.0050 15.27577642    02
Epoch (UTC): 25 May 2026 12:45:21
Eccentricity: 0.0000652
inclination: 42.9990°
perigee height: 483 km
apogee height: 484 km
right ascension of ascending node: 240.2825°
argument of perigee: 273.0727°
revolutions per day: 15.27577642
mean anomaly at epoch: 87.0050°

The dashed part of the orbit path shows where the satellite is in the earth's shadow,  

DLR